Location: Beadle
(51.4667°N, 109.0000°W)
Time: 04:50:21
(UTC+00:00)

Envisat - Pass Details

Date: 26 January 2022
Orbit: 764 x 765 km, 98.2° (Epoch: 25 May)

Event Time Altitude Azimuth Distance (km) Brightness Sun altitude
Rises 00:34:03 0° 211° (SSW) 3,220 7.2 -6.5°
Reaches altitude 10° 00:37:07 10° 231° (SW) 2,300 6.9 -6.9°
Maximum altitude 00:40:28 18° 272° (W) 1,837 6.1 -7.4°
Drops below altitude 10° 00:43:50 10° 314° (NW) 2,311 5.8 -7.9°
Sets 00:46:56 0° 334° (NNW) 3,243 6.3 -8.4°
